This demonstration page uses our WeatherBlox Daily Observations layout. Learn more.

40.92945, -100.16068

Hourly Observations for March 16, 2015

Temp ( °F °C ) Dew Point ( °F °C ) Humidity (%) Winds ( mph kmh ) Pressure ( in mb ) Visibility ( mi km ) Precip ( " mm )
12:15 am 00:15 Clear 63 17.3 21 -6.1 20 20 SSW 21 33 29.94 1014 10 16.0934 N/A
12:35 am 00:35 Clear 63 17.2 22 -5.7 21 21 SW 18 30 29.94 1014 10 16.0934 N/A
12:55 am 00:55 Clear 62 16.7 22 -5.5 22 22 SW 18 30 29.94 1014 10 16.0934 N/A
1:15 am 01:15 Clear 61 16.2 23 -5.1 23 23 SW 18 30 29.97 1015 10 16.0934 N/A
1:35 am 01:35 Clear 61 16.1 23 -5.1 23 23 SW 20 31 29.97 1015 10 16.0934 N/A
1:55 am 01:55 Clear 60 15.7 23 -5 24 24 SW 17 28 29.97 1015 10 16.0934 N/A
2:15 am 02:15 Clear 59 15.1 23 -5 25 25 SW 16 26 29.97 1015 10 16.0934 N/A
2:35 am 02:35 Clear 59 14.9 24 -4.7 26 26 SW 12 19 29.97 1015 10 16.0934 N/A
2:55 am 02:55 Clear 58 14.6 23 -4.8 26 26 SW 14 22 29.97 1015 10 16.0934 N/A
3:15 am 03:15 Clear 58 14.6 24 -4.7 26 26 SW 14 22 29.94 1014 10 16.0934 N/A
3:35 am 03:35 Clear 58 14.2 24 -4.6 27 27 SW 13 20 29.94 1014 10 16.0934 N/A
3:55 am 03:55 Clear 56 13.4 24 -4.6 29 29 SW 8 13 29.94 1014 10 16.0934 N/A
4:15 am 04:15 Clear 55 12.6 24 -4.6 30 30 WSW 3 6 29.94 1014 10 16.0934 N/A
4:35 am 04:35 Clear 50 9.8 23 -5 35 35 W 6 9 29.97 1015 10 16.0934 N/A
4:55 am 04:55 Clear 52 11 24 -4.6 33 33 SW 9 15 29.97 1015 10 16.0934 N/A
5:15 am 05:15 Clear 51 10.5 24 -4.6 35 35 SSW 8 13 29.94 1014 10 16.0934 N/A
5:35 am 05:35 Clear 52 10.9 24 -4.7 33 33 SW 8 13 29.94 1014 10 16.0934 N/A
5:55 am 05:55 Clear 48 8.8 24 -4.3 40 40 WNW 3 6 29.97 1015 10 16.0934 N/A
6:15 am 06:15 Clear 46 7.7 24 -4.5 42 42 Calm 29.97 1015 10 16.0934 N/A
6:35 am 06:35 Clear 44 6.8 24 -4.5 45 45 Calm 29.97 1015 10 16.0934 N/A
6:55 am 06:55 Clear 40 4.6 24 -4.7 51 51 N 3 6 29.97 1015 10 16.0934 N/A
7:15 am 07:15 Clear 40 4.4 24 -4.2 54 54 Calm 29.97 1015 10 16.0934 N/A
7:35 am 07:35 Clear 39 3.8 24 -4.6 55 55 Calm 29.97 1015 10 16.0934 N/A
7:55 am 07:55 Sunny 42 5.3 24 -4.5 50 50 SSW 3 6 29.97 1015 10 16.0934 N/A
8:15 am 08:15 Sunny 40 4.3 24 -4.5 53 53 Calm 29.97 1015 10 16.0934 N/A
8:35 am 08:35 Hazy 39 3.7 26 -3.2 61 61 Calm 29.97 1015 5 8.0467 N/A
8:55 am 08:55 Sunny 45 7.3 28 -2.3 51 51 NNE 3 6 29.94 1014 7 11.26538 N/A
9:15 am 09:15 Sunny 50 10.1 28 -2.5 42 42 Calm 29.91 1013 10 16.0934 N/A
9:35 am 09:35 Sunny 57 13.7 27 -2.8 32 32 WSW 3 6 29.88 1012 10 16.0934 N/A
9:55 am 09:55 Sunny 57 13.7 28 -2.2 33 33 Calm 29.88 1012 10 16.0934 N/A
10:15 am 10:15 Sunny 62 16.7 26 -3.3 25 25 W 3 6 29.85 1011 10 16.0934 N/A
10:35 am 10:35 Sunny 64 17.9 26 -3.2 24 24 WNW 7 11 29.85 1011 10 16.0934 N/A
10:55 am 10:55 Sunny 67 19.6 24 -4.2 20 20 W 7 11 29.83 1010 10 16.0934 N/A
11:15 am 11:15 Sunny 69 20.5 26 -3.5 20 20 WSW 5 7 29.83 1010 10 16.0934 N/A
11:35 am 11:35 Sunny 73 22.9 25 -4 16 16 SSW 9 15 29.8 1009 10 16.0934 N/A
11:55 am 11:55 Sunny 77 25.2 20 -6.7 12 12 SSW 12 19 29.77 1008 10 16.0934 N/A
12:15 pm 12:15 Sunny 79 26.1 19 -7 11 11 SSW 12 19 29.74 1007 10 16.0934 N/A
12:35 pm 12:35 Sunny 80 26.6 20 -6.6 11 11 SW 12 19 29.74 1007 10 16.0934 N/A
12:55 pm 12:55 Sunny 82 27.5 20 -6.6 10 10 SSW 10 17 29.71 1006 10 16.0934 N/A
1:15 pm 13:15 Sunny 83 28.2 18 -7.7 9 9 WSW 8 13 29.71 1006 10 16.0934 N/A
1:35 pm 13:35 Sunny 85 29.6 15 -9.2 7 7 WSW 5 7 29.68 1005 10 16.0934 N/A
1:55 pm 13:55 Sunny 86 30.1 15 -9.5 7 7 W 9 15 29.65 1004 10 16.0934 N/A
2:15 pm 14:15 Sunny 87 30.7 15 -9.5 7 7 WNW 9 15 29.65 1004 10 16.0934 N/A
2:35 pm 14:35 Sunny 89 31.4 14 -10 6 6 W 10 17 29.65 1004 10 16.0934 N/A
2:55 pm 14:55 Sunny 89 31.8 13 -10.4 6 6 WNW 7 11 29.65 1004 10 16.0934 N/A
3:15 pm 15:15 Sunny 89 31.7 15 -9.7 6 6 WSW 5 7 29.65 1004 10 16.0934 N/A
3:35 pm 15:35 Sunny 90 32.2 16 -8.8 6 6 WNW 8 13 29.65 1004 10 16.0934 N/A
3:55 pm 15:55 Sunny 91 32.7 16 -8.7 6 6 Calm 29.59 1002 10 16.0934 N/A
4:15 pm 16:15 Sunny 91 32.5 19 -7.3 7 7 NNW 9 15 29.59 1002 10 16.0934 N/A
4:35 pm 16:35 Sunny 91 32.6 20 -6.5 7 7 NNW 13 20 29.59 1002 10 16.0934 N/A
4:55 pm 16:55 Sunny 90 32.4 27 -2.7 10 10 N 25 41 29.65 1004 10 16.0934 N/A
5:15 pm 17:15 Hazy 84 29 33 0.8 16 16 N 29 46 29.68 1005 5 8.0467 N/A
5:35 pm 17:35 Sunny 82 27.6 35 1.5 18 18 N 33 54 29.74 1007 7 11.26538 N/A
5:55 pm 17:55 Sunny 78 25.5 35 1.5 21 21 NNE 28 44 29.74 1007 7 11.26538 N/A
6:15 pm 18:15 Sunny 75 24.1 35 1.7 23 23 NNE 32 52 29.8 1009 7 11.26538 N/A
6:35 pm 18:35 Sunny 73 22.5 36 2.3 27 27 NNE 37 59 29.83 1010 7 11.26538 N/A
6:55 pm 18:55 Sunny 71 21.5 37 2.8 29 29 NNE 29 46 29.88 1012 7 11.26538 N/A
7:15 pm 19:15 Sunny 70 21 37 2.8 30 30 NNE 38 61 29.88 1012 7 11.26538 N/A
7:35 pm 19:35 Sunny 68 19.9 37 2.8 32 32 NNE 31 50 29.91 1013 10 16.0934 N/A
7:55 pm 19:55 Clear 66 18.7 37 2.6 34 34 NNE 25 41 29.97 1015 7 11.26538 N/A
8:15 pm 20:15 Clear 63 17.3 35 1.8 35 35 NNE 22 35 30.03 1017 10 16.0934 N/A
8:35 pm 20:35 Clear 61 15.9 34 1.3 37 37 NNE 22 35 30.06 1018 10 16.0934 N/A
8:55 pm 20:55 Clear 58 14.5 34 1.1 40 40 NNE 26 43 30.09 1019 10 16.0934 N/A
9:15 pm 21:15 Clear 56 13.4 34 1.1 43 43 NNE 25 41 30.12 1020 10 16.0934 N/A
9:35 pm 21:35 Clear 54 12.2 34 0.9 46 46 N 21 33 30.15 1021 10 16.0934 N/A
9:55 pm 21:55 Clear 52 11 33 0.7 49 49 N 25 41 30.21 1023 10 16.0934 N/A
10:15 pm 22:15 Clear 50 9.8 33 0.7 53 53 NNE 31 50 30.21 1023 10 16.0934 N/A
10:35 pm 22:35 Clear 48 8.9 34 0.9 58 58 NNE 26 43 30.21 1023 10 16.0934 N/A
10:55 pm 22:55 Clear 47 8.1 34 1 61 61 NNE 23 37 30.27 1025 10 16.0934 N/A
11:15 pm 23:15 Clear 45 7.4 34 1.2 65 65 NNE 22 35 30.27 1025 10 16.0934 N/A
11:35 pm 23:35 Clear 44 6.9 34 0.9 66 66 NNE 28 44 30.3 1026 10 16.0934 N/A
11:55 pm 23:55 Clear 43 6.2 33 0.5 67 67 NNE 28 44 30.3 1026 10 16.0934 N/A

Powered by AerisWeather